Location: *
(50.2903°S, 172.5375°W)
Time: 10:56:20
(UTC+00:00)

SL-27 R/B - Pass Details

Date: 17 November 2019
Orbit: 420 x 472 km, 74.7° (Epoch: 11 December)

Event Time Altitude Azimuth Distance (km) Brightness Sun altitude
Rises 13:32:52 0° 203° (SSW) 2,533 6.7 -14.3°
Reaches altitude 10° 13:35:01 10° 201° (SSW) 1,640 5.7 -14.2°
Maximum altitude 13:38:38 83° 113° (ESE) 472 2.5 -13.8°
Drops below altitude 10° 13:42:08 10° 24° (NNE) 1,584 4.9 -13.5°
Enters shadow 13:42:40 - 24° (NNE) 1,805 5.2 -13.5°
